This is the latest recevied weather packets stored in our database for station/object KM4LTG. If no packets are shown the sender has not sent any weather packets the latest 1 day(s).
| Time | Temp. | Humidity | Pressure | Rain* | Wind** | Luminosity | Snow |
|---|---|---|---|---|---|---|---|
| 1778110760 | 26.11° C | 80% | 1016.6 hPa | 0 mm | - | - | - |
| 1778109670 | 26.67° C | 78% | 1016.6 hPa | 0 mm | - | - | - |
| 1778108635 | 27.22° C | 76% | 1016.5 hPa | 0 mm | - | - | - |
| 1778108340 | 27.22° C | 76% | 1016.5 hPa | 0 mm | - | - | - |
| 1778108065 | 27.78° C | 74% | 1016.5 hPa | 0 mm | - | - | - |
| 1778107565 | 27.78° C | 74% | 1016.4 hPa | 0 mm | - | - | - |
| 1778107040 | 28.89° C | 71% | 1016.4 hPa | 0 mm | - | - | - |
| 1778105740 | 28.33° C | 68% | 1016.5 hPa | 0 mm | - | - | - |
| 1778105465 | 28.33° C | 70% | 1016.6 hPa | 0 mm | - | - | - |
| 1778104909 | 28.89° C | 69% | 1016.6 hPa | 0 mm | - | - | - |
| 1778104645 | 28.89° C | 67% | 1016.7 hPa | 0 mm | - | - | - |
| 1778104107 | 29.44° C | 66% | 1016.6 hPa | 0 mm | - | - | - |
| 1778103575 | 29.44° C | 66% | 1016.7 hPa | 0 mm | - | - | - |
| 1778103315 | 29.44° C | 67% | 1016.7 hPa | 0 mm | - | - | - |
| 1778102810 | 29.44° C | 67% | 1016.7 hPa | 0 mm | - | - | - |
| 1778102540 | 29.44° C | 67% | 1016.7 hPa | 0 mm | - | - | - |
| 1778102265 | 29.44° C | 68% | 1016.7 hPa | 0 mm | - | - | - |
| 1778101760 | 29.44° C | 68% | 1016.6 hPa | 0 mm | - | - | - |
| 1778101225 | 29.44° C | 69% | 1016.5 hPa | 0 mm | - | - | - |
| 1778100955 | 29.44° C | 69% | 1016.6 hPa | 0 mm | - | - | - |
| 1778100165 | 29.44° C | 69% | 1016.7 hPa | 0 mm | - | - | - |
| 1778099660 | 29.44° C | 69% | 1016.8 hPa | 0 mm | - | - | - |
| 1778099370 | 29.44° C | 69% | 1016.7 hPa | 0 mm | - | - | - |
| 1778098795 | 29.44° C | 68% | 1016.7 hPa | 0 mm | - | - | - |
| 1778098510 | 29.44° C | 68% | 1016.8 hPa | 0 mm | - | - | - |
* Rain latest hour (hover to see other rain measurements)
** Current wind speed in m/s (hover to see current wind gust speed)